Content
SEND FEEDBACK

Daily
Averages
Monthly
Summary
United States of America

TERRE HAUTE, INDIANA


Home > North America > United States > Indiana
Elevation: 585 feet     Latitude: 39 27N     Longitude: 087 18W

WEATHER
 
SELECT A DAY
Number of Records: 203,559;   Date Range: 1/1/95 - 7/7/14
 
SHARE

PRINT THIS DATA

[ ← Previous Day ]
WEATHER ALMANAC - FEBRUARY 13, 2013
[ Next Day → ]
[ °C ]   °F
Weather ElementAverageHighLow
Temperature35.9 °F45 °F (3:53 pm)30 °F (7:53 am)
Dewpoint27.5 °F30.9 °F (11:53 pm)25 °F (7:53 am)
Humidity72.7 %85 % (1:53 am)52 % (3:53 pm)
Barometer29.87 in29.94 in (1:53 am)29.81 in (3:53 pm)
Wind Speed4.8 mph12.7 mph (4:53 pm)
Weather ElementAverage
Visibility8.9 mi
Wind DirectionESE (102.6 °)

Weather ElementTotal
Precipitation---
Heating Degree Days27.5 (Base 65)
Averaged from 23 records on February 13, 2013
WEATHER CONDITIONS BREAKOUT
WIND DIRECTION BREAKOUT
WEATHER BY HOUR - FEBRUARY 13, 2013
[ °C ]   °F
Local TimeTemperatureDewpointHumidityBarometerVisibilityWind DirectionWind SpeedGust SpeedPrecipitationEventsConditions
1:53 AM30.9 °F27.0 °F85 %29.94 in7.0 miNNE (20°)3.5 mphOvercast
2:53 AM30.9 °F27.0 °F85 %29.94 in7.0 miNE (40°)3.5 mphOvercast
3:53 AM30.9 °F26.1 °F82 %29.91 in8.0 miNorth (10°)4.6 mphOvercast
4:53 AM30.9 °F26.1 °F82 %29.90 in8.0 miCalmScattered Clouds
5:53 AM30.9 °F26.1 °F82 %29.87 in8.0 miNNE (20°)4.6 mphOvercast
6:53 AM30.9 °F26.1 °F82 %29.86 in8.0 miCalmMostly Cloudy
7:53 AM30.0 °F25.0 °F82 %29.88 in8.0 miCalmMostly Cloudy
8:53 AM30.9 °F26.1 °F82 %29.89 in7.0 miCalmMostly Cloudy
9:53 AM30.9 °F26.1 °F82 %29.89 in7.0 miCalmClear
10:53 AM33.1 °F26.1 °F75 %29.90 in8.0 miCalmPartly Cloudy
11:53 AM35.1 °F26.1 °F70 %29.88 in9.0 miCalmClear
12:53 PM39.0 °F26.1 °F60 %29.86 in10.0 miCalmClear
1:53 PM43.0 °F27.0 °F53 %29.84 in10.0 miWest (270°)8.1 mphClear
2:53 PM44.1 °F28.0 °F53 %29.82 in10.0 miSW (220°)9.2 mphClear
3:53 PM45.0 °F28.0 °F52 %29.81 in10.0 miSW (220°)9.2 mphClear
4:53 PM45.0 °F30.0 °F56 %29.82 in10.0 miSW (220°)12.7 mphClear
5:53 PM43.0 °F28.9 °F58 %29.83 in10.0 miSW (220°)9.2 mphClear
6:53 PM37.9 °F28.9 °F70 %29.84 in10.0 miSouth (180°)5.8 mphClear
7:53 PM37.0 °F28.9 °F73 %29.85 in10.0 miSouth (180°)8.1 mphPartly Cloudy
8:53 PM37.9 °F28.9 °F70 %29.86 in10.0 miSouth (190°)6.9 mphPartly Cloudy
9:53 PM36.0 °F30.0 °F79 %29.86 in10.0 miSouth (190°)6.9 mphClear
10:53 PM37.0 °F30.0 °F76 %29.87 in10.0 miSouth (190°)8.1 mphClear
11:53 PM36.0 °F30.9 °F82 %29.87 in10.0 miSouth (190°)9.2 mphClear
Hourly data recorded from KHUF, located miles away from Terre Haute, Indiana







STORIES FROM OUR PARTNERS